QPF
0.00 0.00 0.00 0.00 0.00 0.00 0.00 0.00 0.00 0.00 0.00 0.00 0.00 0.00 0.00 0.00 0.00 0.00 0.00 0.00 0.00 0.00 0.00 0.00 0.00 0.00 0.00 0.00 0.00 0.00 0.00 0.00 0.00 0.00 0.01 0.01 0.00 0.00 0.00 0.00 0.00 0.00 0.00 0.00
0.00 0.00 0.00 0.00 0.00 0.00 0.00 0.00 0.00 0.00 0.00 0.00 0.00 0.00 0.00 0.00 0.00 0.00 0.00 0.00 0.00 0.00 0.00 0.00 0.00 0.00 0.00 0.00 0.00 0.00 0.00 0.00 0.00 0.00 0.00 0.00 0.00 0.00 0.00 0.00 0.00 0.00 0.00 0.00
0.00 0.00 0.00 0.00 0.00 0.00 0.00 0.00 0.00 0.00 0.00 0.00 0.00 0.00 0.00 0.00 0.00 0.00 0.00 0.00 0.00 0.00 0.00 0.00 0.00 0.00 0.00 0.00 0.00 0.00 0.00 0.00 0.00 0.00 0.00 0.00 0.00 0.00 0.00 0.00 0.00 0.00 0.00 0.00
0.00 0.00 0.00 0.00 0.00 0.00 0.00 0.00 0.00 0.00 0.00 0.00 0.00 0.00 0.00 0.00 0.00 0.00 0.00 0.00 0.00 0.00 0.00 0.00 0.00 0.00 0.00 0.00 0.00 0.00 0.00 0.00 0.00 0.00 0.00 0.00 0.00 0.00 0.00 0.00 0.00 0.00 0.00 0.00
0.00 0.00 0.00 0.00 0.00 0.00 0.00 0.00 0.00 0.00 0.00 0.00 0.00 0.00 0.00 0.00 0.00 0.00 0.00 0.00 0.00 0.00 0.00 0.00 0.00 0.00 0.00 0.00 0.00 0.00 0.00 0.00 0.00 0.00 0.00 0.00 0.00 0.00 0.00 0.00 0.00 0.00 0.00 0.00
0.00 0.00 0.00 0.00 0.00 0.00 0.00 0.00 0.00 0.00 0.00 0.00 0.00 0.00 0.00 0.00 0.00 0.00 0.00 0.00 0.00 0.00 0.00 0.00 0.00 0.00 0.00 0.00 0.00 0.00 0.00 0.00 0.00 0.00 0.00 0.00 0.00 0.00 0.00 0.00 0.00 0.00 0.00 0.00
0.00 0.00 0.00 0.00 0.00 0.00 0.00 0.00 0.00 0.00 0.00 0.00 0.00 0.00 0.00 0.00 0.00 0.00 0.00 0.00 0.00 0.00 0.00 0.00 0.00 0.00 0.00 0.00 0.00 0.00 0.00 0.00 0.00 0.00 0.00 0.00 0.00 0.00 0.00 0.00 0.00 0.00 0.00 0.00
0.00 0.00 0.00 0.00 0.00 0.00 0.00 0.00 0.00 0.00 0.00 0.00 0.00 0.00 0.00 0.00 0.00 0.00 0.00 0.00 0.00 0.00 0.00 0.00 0.00 0.00 0.00 0.00 0.00 0.00 0.00 0.00 0.00 0.00 0.00 0.00 0.00 0.00 0.00 0.00 0.00 0.00 0.00 0.00
0.00 0.00 0.00 0.00 0.00 0.00 0.00 0.00 0.00 0.00 0.00 0.00 0.00 0.00 0.00 0.00 0.00 0.00 0.00 0.00 0.00 0.00 0.00 0.00 0.00 0.00 0.00 0.00 0.00 0.00 0.00 0.00 0.00 0.00 0.00 0.00 0.00 0.00 0.00 0.00 0.00 0.00 0.00 0.00
0.00 0.00 0.00 0.00 0.00 0.00 0.00 0.00 0.00 0.00 0.00 0.00 0.00 0.00 0.00 0.00 0.00 0.00 0.00 0.00 0.00 0.00 0.00 0.00 0.00 0.00 0.00 0.00 0.00 0.00 0.00 0.00 0.00 0.00 0.00 0.00 0.00 0.00 0.00 0.00 0.00 0.00 0.00 0.00
0.00 0.00 0.00 0.00 0.00 0.00 0.00 0.00 0.00 0.00 0.00 0.00 0.00 0.00 0.00 0.00 0.00 0.00 0.00 0.00 0.00 0.00 0.00 0.00 0.00 0.00 0.00 0.00 0.00 0.00 0.00 0.00 0.00 0.00 0.00 0.00 0.00 0.00 0.00 0.00 0.00 0.00 0.00 0.00
0.00 0.00 0.00 0.00 0.00 0.00 0.00 0.00 0.00 0.00 0.00 0.00 0.00 0.00 0.00 0.00 0.00 0.00 0.00 0.00 0.00 0.00 0.00 0.00 0.00 0.00 0.00 0.00 0.00 0.00 0.00 0.00 0.00 0.00 0.00 0.00 0.00 0.00 0.00 0.00 0.00 0.00 0.00 0.00
0.00 0.00 0.00 0.00 0.00 0.00 0.00 0.00 0.00 0.00 0.00 0.00 0.00 0.00 0.00 0.00 0.00 0.00 0.00 0.00 0.00 0.00 0.00 0.00 0.00 0.00 0.00 0.00 0.00 0.00 0.00 0.00 0.00 0.00 0.00 0.00 0.00 0.00 0.00 0.00 0.00 0.00 0.00 0.00
0.00 0.00 0.00 0.00 0.00 0.00 0.00 0.00 0.00 0.00 0.00 0.00 0.00 0.00 0.00 0.00 0.00 0.00 0.00 0.00 0.00 0.00 0.00 0.00 0.00 0.00 0.00 0.00 0.00 0.00 0.00 0.00 0.00 0.00 0.00 0.00 0.00 0.00 0.00 0.00 0.00 0.00 0.00 0.00
0.01 0.01 0.00 0.00 0.00 0.00 0.00 0.00 0.00 0.00 0.00 0.00 0.00 0.00 0.00 0.00 0.00 0.00 0.00 0.00 0.00 0.00 0.00 0.00 0.00 0.00 0.00 0.00 0.00 0.00 0.00 0.00 0.00 0.00 0.00 0.00 0.00 0.00 0.00 0.00 0.00 0.00 0.00 0.00
0.01 0.01 0.00 0.00 0.00 0.00 0.00 0.00 0.00 0.00 0.00 0.00 0.00 0.00 0.00 0.00 0.00 0.00 0.00 0.00 0.00 0.00 0.00 0.00 0.00 0.00 0.00 0.00 0.00 0.00 0.00 0.00 0.00 0.00 0.00 0.00 0.00 0.00 0.00 0.00 0.00 0.00 0.00 0.00
0.01 0.01 0.00 0.00 0.00 0.00 0.00 0.00 0.00 0.00 0.00 0.00 0.00 0.00 0.00 0.00 0.00 0.00 0.00 0.00 0.00 0.00 0.00 0.00 0.00 0.00 0.00 0.00 0.00 0.00 0.00 0.00 0.00 0.00 0.00 0.00 0.00 0.00 0.00 0.00 0.00 0.00 0.00 0.00
0.02 0.01 0.01 0.00 0.00 0.01 0.00 0.00 0.00 0.00 0.00 0.00 0.00 0.00 0.00 0.00 0.00 0.00 0.00 0.00 0.00 0.00 0.00 0.00 0.00 0.00 0.00 0.00 0.00 0.00 0.00 0.00 0.00 0.00 0.00 0.00 0.00 0.00 0.00 0.00 0.00 0.00 0.00 0.00
0.01 0.02 0.02 0.01 0.01 0.00 0.00 0.00 0.00 0.00 0.00 0.00 0.00 0.00 0.00 0.00 0.00 0.00 0.00 0.00 0.00 0.00 0.00 0.00 0.00 0.00 0.00 0.00 0.00 0.00 0.00 0.00 0.00 0.00 0.00 0.00 0.00 0.00 0.00 0.00 0.00 0.00 0.00 0.00
0.01 0.01 0.03 0.02 0.01 0.00 0.00 0.00 0.00 0.00 0.00 0.00 0.00 0.00 0.00 0.00 0.00 0.00 0.00 0.00 0.00 0.00 0.00 0.00 0.00 0.00 0.00 0.00 0.00 0.00 0.00 0.00 0.00 0.00 0.00 0.00 0.00 0.00 0.00 0.00 0.00 0.00 0.00 0.00
0.01 0.02 0.03 0.02 0.00 0.00 0.00 0.00 0.00 0.00 0.00 0.00 0.00 0.00 0.00 0.00 0.00 0.00 0.00 0.00 0.00 0.00 0.00 0.00 0.00 0.00 0.00 0.00 0.00 0.00 0.00 0.00 0.00 0.00 0.00 0.00 0.00 0.00 0.00 0.00 0.00 0.00 0.00 0.00
0.01 0.01 0.01 0.01 0.01 0.00 0.00 0.00 0.00 0.00 0.00 0.00 0.00 0.00 0.00 0.00 0.00 0.00 0.00 0.00 0.00 0.00 0.00 0.00 0.00 0.00 0.00 0.00 0.00 0.00 0.00 0.00 0.00 0.00 0.00 0.00 0.00 0.00 0.00 0.00 0.00 0.00 0.00 0.00
0.00 0.01 0.01 0.00 0.00 0.00 0.00 0.00 0.00 0.00 0.00 0.00 0.00 0.00 0.00 0.00 0.00 0.00 0.00 0.00 0.00 0.00 0.00 0.00 0.00 0.00 0.00 0.00 0.00 0.00 0.00 0.00 0.00 0.00 0.00 0.00 0.00 0.00 0.00 0.00 0.00 0.00 0.00 0.00
0.00 0.00 0.00 0.00 0.00 0.00 0.00 0.00 0.00 0.00 0.00 0.00 0.00 0.00 0.00 0.00 0.00 0.00 0.00 0.00 0.00 0.00 0.00 0.00 0.00 0.00 0.00 0.00 0.00 0.00 0.00 0.00 0.00 0.00 0.00 0.00 0.00 0.00 0.00 0.00 0.00 0.00 0.00 0.00
0.00 0.00 0.00 0.00 0.00 0.00 0.00 0.00 0.00 0.00 0.00 0.00 0.00 0.00 0.00 0.00 0.00 0.00 0.00 0.00 0.00 0.00 0.00 0.00 0.00 0.00 0.00 0.00 0.00 0.00 0.00 0.00 0.00 0.00 0.00 0.00 0.00 0.00 0.00 0.00 0.00 0.00 0.00 0.00
0.00 0.00 0.00 0.00 0.00 0.00 0.00 0.00 0.00 0.00 0.00 0.00 0.00 0.00 0.00 0.00 0.00 0.00 0.00 0.00 0.00 0.00 0.00 0.00 0.00 0.00 0.00 0.00 0.00 0.00 0.00 0.00 0.00 0.00 0.00 0.00 0.00 0.00 0.00 0.00 0.00 0.00 0.00 0.00
MSLP
1016.39 1016.83 1017.19 1017.47 1017.66 1017.79 1017.83 1017.79 1017.66 1017.40 1017.00 1016.47 1015.80 1015.03 1014.21 1013.41 1012.69 1012.13 1011.75 1011.58 1011.61 1011.81 1012.13 1012.52 1012.94 1013.37 1013.78 1014.19 1014.62 1015.08 1015.59 1016.16 1016.78 1017.43 1018.09 1018.74 1019.33 1019.86 1020.31 1020.69 1021.00 1021.25 1021.47 1021.68
1016.71 1017.07 1017.37 1017.62 1017.82 1017.97 1018.07 1018.09 1018.00 1017.77 1017.38 1016.80 1016.05 1015.18 1014.24 1013.31 1012.48 1011.83 1011.39 1011.20 1011.23 1011.46 1011.82 1012.25 1012.70 1013.14 1013.56 1013.96 1014.37 1014.81 1015.30 1015.87 1016.51 1017.19 1017.90 1018.59 1019.23 1019.81 1020.29 1020.70 1021.04 1021.32 1021.57 1021.81
1016.90 1017.16 1017.39 1017.61 1017.82 1018.03 1018.20 1018.31 1018.31 1018.14 1017.76 1017.17 1016.36 1015.40 1014.35 1013.32 1012.39 1011.66 1011.18 1010.97 1011.02 1011.26 1011.66 1012.12 1012.59 1013.03 1013.43 1013.80 1014.17 1014.57 1015.04 1015.58 1016.21 1016.90 1017.62 1018.33 1019.00 1019.60 1020.12 1020.55 1020.92 1021.23 1021.52 1021.79
1016.93 1017.08 1017.24 1017.44 1017.68 1017.96 1018.24 1018.46 1018.56 1018.47 1018.14 1017.54 1016.70 1015.67 1014.53 1013.41 1012.40 1011.61 1011.10 1010.87 1010.93 1011.20 1011.61 1012.09 1012.56 1012.99 1013.36 1013.69 1014.00 1014.35 1014.76 1015.27 1015.86 1016.53 1017.24 1017.94 1018.61 1019.22 1019.75 1020.20 1020.59 1020.94 1021.27 1021.60
1016.83 1016.88 1016.98 1017.17 1017.45 1017.80 1018.19 1018.54 1018.76 1018.76 1018.48 1017.90 1017.04 1015.96 1014.76 1013.56 1012.49 1011.65 1011.10 1010.86 1010.92 1011.20 1011.63 1012.11 1012.58 1012.98 1013.31 1013.58 1013.84 1014.12 1014.46 1014.91 1015.45 1016.07 1016.74 1017.42 1018.07 1018.67 1019.20 1019.67 1020.08 1020.47 1020.85 1021.22
1016.66 1016.62 1016.67 1016.85 1017.18 1017.62 1018.12 1018.58 1018.91 1019.00 1018.78 1018.23 1017.36 1016.24 1014.99 1013.73 1012.61 1011.72 1011.14 1010.89 1010.94 1011.22 1011.64 1012.12 1012.57 1012.94 1013.23 1013.45 1013.63 1013.85 1014.12 1014.50 1014.97 1015.53 1016.15 1016.79 1017.41 1017.99 1018.52 1018.99 1019.43 1019.85 1020.28 1020.72
1016.46 1016.36 1016.39 1016.58 1016.95 1017.46 1018.05 1018.62 1019.04 1019.20 1019.03 1018.50 1017.63 1016.49 1015.20 1013.90 1012.73 1011.81 1011.19 1010.92 1010.94 1011.20 1011.60 1012.05 1012.47 1012.81 1013.06 1013.23 1013.36 1013.51 1013.72 1014.03 1014.44 1014.94 1015.51 1016.10 1016.69 1017.24 1017.76 1018.24 1018.70 1019.16 1019.64 1020.13
1016.28 1016.16 1016.19 1016.40 1016.81 1017.39 1018.04 1018.67 1019.14 1019.35 1019.21 1018.70 1017.82 1016.67 1015.36 1014.03 1012.83 1011.86 1011.21 1010.90 1010.88 1011.10 1011.47 1011.88 1012.26 1012.57 1012.77 1012.90 1013.00 1013.10 1013.27 1013.53 1013.88 1014.33 1014.85 1015.40 1015.95 1016.49 1017.00 1017.49 1017.97 1018.47 1018.98 1019.52
1016.15 1016.06 1016.11 1016.35 1016.80 1017.40 1018.08 1018.73 1019.22 1019.43 1019.30 1018.78 1017.91 1016.75 1015.43 1014.09 1012.86 1011.87 1011.18 1010.81 1010.74 1010.90 1011.21 1011.58 1011.92 1012.18 1012.36 1012.47 1012.55 1012.63 1012.77 1013.00 1013.32 1013.74 1014.22 1014.73 1015.26 1015.79 1016.30 1016.80 1017.31 1017.83 1018.37 1018.94
1016.08 1016.04 1016.14 1016.42 1016.87 1017.47 1018.14 1018.76 1019.21 1019.40 1019.24 1018.72 1017.84 1016.69 1015.38 1014.05 1012.82 1011.80 1011.08 1010.66 1010.52 1010.61 1010.85 1011.16 1011.45 1011.69 1011.85 1011.96 1012.03 1012.12 1012.26 1012.48 1012.79 1013.19 1013.65 1014.15 1014.66 1015.18 1015.70 1016.20 1016.72 1017.26 1017.82 1018.40
1016.05 1016.10 1016.25 1016.55 1017.00 1017.55 1018.15 1018.69 1019.07 1019.19 1018.99 1018.44 1017.58 1016.45 1015.18 1013.87 1012.67 1011.66 1010.91 1010.44 1010.24 1010.26 1010.42 1010.66 1010.91 1011.12 1011.28 1011.40 1011.50 1011.61 1011.77 1012.01 1012.32 1012.71 1013.16 1013.65 1014.16 1014.67 1015.18 1015.70 1016.22 1016.76 1017.32 1017.89
1016.05 1016.18 1016.38 1016.68 1017.09 1017.56 1018.05 1018.47 1018.73 1018.76 1018.50 1017.93 1017.09 1016.01 1014.80 1013.57 1012.42 1011.43 1010.68 1010.18 1009.92 1009.87 1009.96 1010.14 1010.34 1010.54 1010.71 1010.85 1010.98 1011.13 1011.33 1011.58 1011.91 1012.30 1012.74 1013.22 1013.71 1014.22 1014.73 1015.24 1015.76 1016.29 1016.83 1017.38
1016.04 1016.25 1016.48 1016.76 1017.09 1017.44 1017.78 1018.05 1018.16 1018.08 1017.76 1017.18 1016.37 1015.37 1014.26 1013.13 1012.07 1011.15 1010.42 1009.91 1009.61 1009.50 1009.53 1009.65 1009.82 1010.00 1010.18 1010.35 1010.52 1010.72 1010.94 1011.22 1011.55 1011.93 1012.36 1012.82 1013.30 1013.79 1014.28 1014.78 1015.29 1015.80 1016.32 1016.84
1016.03 1016.28 1016.51 1016.73 1016.95 1017.16 1017.32 1017.40 1017.36 1017.17 1016.78 1016.20 1015.45 1014.55 1013.58 1012.58 1011.64 1010.81 1010.14 1009.64 1009.33 1009.17 1009.16 1009.24 1009.38 1009.55 1009.74 1009.94 1010.14 1010.37 1010.61 1010.90 1011.23 1011.59 1011.99 1012.41 1012.86 1013.32 1013.80 1014.29 1014.78 1015.28 1015.77 1016.26
1016.02 1016.28 1016.47 1016.61 1016.69 1016.72 1016.68 1016.58 1016.37 1016.06 1015.62 1015.06 1014.38 1013.61 1012.78 1011.95 1011.16 1010.45 1009.85 1009.40 1009.09 1008.91 1008.86 1008.91 1009.03 1009.20 1009.39 1009.61 1009.83 1010.07 1010.33 1010.60 1010.90 1011.23 1011.58 1011.96 1012.37 1012.80 1013.26 1013.73 1014.21 1014.70 1015.17 1015.63
1016.00 1016.23 1016.36 1016.38 1016.31 1016.15 1015.92 1015.62 1015.26 1014.84 1014.36 1013.82 1013.23 1012.60 1011.94 1011.28 1010.65 1010.07 1009.57 1009.17 1008.88 1008.71 1008.64 1008.66 1008.76 1008.92 1009.12 1009.34 1009.57 1009.81 1010.05 1010.29 1010.55 1010.82 1011.12 1011.45 1011.81 1012.21 1012.65 1013.11 1013.59 1014.07 1014.54 1014.99
1015.97 1016.15 1016.19 1016.08 1015.85 1015.51 1015.09 1014.62 1014.12 1013.61 1013.10 1012.59 1012.09 1011.58 1011.08 1010.59 1010.12 1009.68 1009.28 1008.95 1008.69 1008.52 1008.44 1008.45 1008.54 1008.68 1008.87 1009.09 1009.31 1009.53 1009.74 1009.95 1010.15 1010.37 1010.60 1010.88 1011.20 1011.58 1012.00 1012.47 1012.95 1013.45 1013.92 1014.36
1015.89 1016.00 1015.93 1015.70 1015.32 1014.82 1014.24 1013.63 1013.02 1012.44 1011.90 1011.43 1011.01 1010.62 1010.26 1009.92 1009.59 1009.27 1008.97 1008.70 1008.48 1008.32 1008.24 1008.23 1008.31 1008.44 1008.61 1008.82 1009.02 1009.22 1009.39 1009.55 1009.70 1009.86 1010.05 1010.28 1010.58 1010.94 1011.36 1011.84 1012.34 1012.85 1013.34 1013.79
1015.70 1015.73 1015.57 1015.23 1014.73 1014.10 1013.40 1012.68 1011.99 1011.36 1010.82 1010.38 1010.02 1009.73 1009.49 1009.27 1009.05 1008.82 1008.60 1008.38 1008.19 1008.05 1007.97 1007.96 1008.02 1008.14 1008.31 1008.49 1008.68 1008.85 1009.00 1009.12 1009.23 1009.35 1009.50 1009.71 1009.99 1010.35 1010.78 1011.28 1011.81 1012.34 1012.84 1013.28
1015.33 1015.28 1015.05 1014.62 1014.03 1013.32 1012.55 1011.77 1011.03 1010.39 1009.86 1009.45 1009.14 1008.93 1008.76 1008.63 1008.49 1008.33 1008.17 1007.99 1007.83 1007.70 1007.62 1007.61 1007.67 1007.79 1007.94 1008.12 1008.30 1008.45 1008.58 1008.68 1008.78 1008.88 1009.02 1009.22 1009.50 1009.86 1010.32 1010.83 1011.37 1011.91 1012.41 1012.84
1014.70 1014.58 1014.29 1013.81 1013.17 1012.43 1011.64 1010.84 1010.11 1009.48 1008.97 1008.60 1008.34 1008.18 1008.07 1007.99 1007.91 1007.80 1007.67 1007.53 1007.39 1007.27 1007.21 1007.20 1007.26 1007.38 1007.54 1007.72 1007.90 1008.05 1008.18 1008.29 1008.38 1008.49 1008.64 1008.85 1009.14 1009.52 1009.98 1010.50 1011.04 1011.57 1012.05 1012.44
1013.77 1013.59 1013.25 1012.75 1012.11 1011.39 1010.62 1009.86 1009.17 1008.59 1008.13 1007.81 1007.59 1007.47 1007.41 1007.37 1007.32 1007.24 1007.14 1007.03 1006.91 1006.82 1006.77 1006.78 1006.85 1006.98 1007.15 1007.34 1007.53 1007.71 1007.86 1007.99 1008.11 1008.24 1008.41 1008.64 1008.94 1009.33 1009.79 1010.29 1010.80 1011.29 1011.71 1012.04
1012.53 1012.29 1011.93 1011.43 1010.83 1010.16 1009.46 1008.79 1008.18 1007.68 1007.30 1007.03 1006.88 1006.80 1006.78 1006.77 1006.75 1006.71 1006.64 1006.55 1006.46 1006.40 1006.37 1006.40 1006.49 1006.64 1006.83 1007.05 1007.27 1007.47 1007.66 1007.82 1007.97 1008.14 1008.34 1008.59 1008.90 1009.28 1009.71 1010.17 1010.62 1011.03 1011.37 1011.61
1011.04 1010.75 1010.36 1009.89 1009.35 1008.76 1008.18 1007.62 1007.14 1006.75 1006.46 1006.29 1006.20 1006.18 1006.21 1006.24 1006.26 1006.26 1006.23 1006.18 1006.13 1006.09 1006.10 1006.16 1006.28 1006.45 1006.66 1006.90 1007.14 1007.38 1007.60 1007.81 1008.00 1008.20 1008.42 1008.68 1008.98 1009.32 1009.70 1010.08 1010.44 1010.75 1010.98 1011.11
1009.40 1009.05 1008.66 1008.22 1007.76 1007.28 1006.83 1006.42 1006.08 1005.82 1005.66 1005.59 1005.60 1005.66 1005.75 1005.84 1005.92 1005.97 1005.98 1005.98 1005.98 1005.98 1006.02 1006.11 1006.25 1006.44 1006.67 1006.93 1007.19 1007.46 1007.71 1007.94 1008.16 1008.38 1008.61 1008.86 1009.13 1009.42 1009.71 1009.99 1010.23 1010.42 1010.53 1010.54
1007.77 1007.37 1006.97 1006.58 1006.20 1005.85 1005.53 1005.28 1005.10 1005.00 1004.97 1005.03 1005.14 1005.30 1005.47 1005.64 1005.78 1005.89 1005.97 1006.03 1006.07 1006.12 1006.19 1006.30 1006.45 1006.64 1006.88 1007.13 1007.41 1007.68 1007.94 1008.19 1008.42 1008.65 1008.86 1009.08 1009.29 1009.50 1009.69 1009.85 1009.96 1010.01 1009.99 1009.90
Thickness
5683 5675 5674 5682 5688 5688 5686 5683 5681 5692 5707 5701 5696 5702 5714 5723 5724 5723 5723 5724 5724 5724 5726 5723 5718 5712 5706 5700 5695 5689 5682 5676 5671 5664 5657 5650 5645 5641 5636 5632 5627 5622 5618 5614
5669 5668 5682 5689 5688 5683 5679 5674 5677 5689 5701 5694 5692 5700 5715 5723 5724 5724 5723 5722 5723 5722 5720 5717 5713 5707 5701 5695 5690 5685 5680 5673 5667 5662 5655 5649 5642 5637 5632 5627 5623 5618 5613 5609
5664 5677 5685 5681 5677 5673 5672 5670 5673 5675 5683 5690 5686 5690 5710 5721 5726 5725 5724 5723 5722 5719 5715 5711 5706 5701 5696 5690 5686 5682 5677 5670 5664 5658 5651 5644 5637 5631 5625 5621 5617 5613 5609 5604
5666 5678 5676 5672 5671 5670 5663 5677 5675 5671 5662 5664 5676 5661 5696 5711 5712 5715 5716 5716 5715 5716 5713 5708 5703 5696 5691 5687 5682 5677 5672 5666 5659 5654 5647 5640 5633 5626 5622 5618 5612 5608 5603 5598
5663 5672 5667 5664 5670 5671 5670 5672 5669 5664 5656 5653 5667 5658 5683 5706 5702 5707 5710 5710 5711 5710 5707 5704 5699 5693 5688 5683 5677 5671 5666 5660 5655 5649 5643 5636 5630 5624 5619 5613 5607 5602 5597 5592
5663 5673 5672 5670 5672 5670 5669 5663 5660 5657 5648 5639 5666 5660 5671 5694 5701 5703 5705 5705 5705 5704 5701 5698 5694 5689 5682 5676 5670 5665 5660 5655 5650 5644 5639 5633 5626 5620 5614 5608 5602 5596 5591 5586
5649 5658 5666 5668 5658 5658 5656 5643 5633 5632 5625 5639 5671 5663 5672 5699 5704 5703 5700 5699 5699 5697 5693 5689 5685 5680 5675 5669 5663 5658 5653 5649 5644 5639 5634 5629 5623 5617 5611 5605 5598 5591 5585 5579
5637 5642 5656 5659 5656 5650 5647 5644 5630 5626 5633 5648 5659 5655 5679 5700 5703 5702 5699 5696 5694 5691 5686 5683 5680 5675 5669 5664 5658 5653 5648 5643 5639 5634 5629 5624 5619 5613 5607 5601 5594 5587 5581 5575
5645 5643 5660 5660 5661 5655 5645 5641 5650 5636 5638 5634 5650 5672 5687 5696 5693 5693 5690 5689 5686 5684 5682 5678 5675 5670 5665 5660 5655 5649 5644 5638 5634 5629 5624 5619 5614 5608 5602 5596 5590 5583 5577 5570
5653 5642 5646 5648 5648 5648 5648 5646 5636 5625 5618 5618 5644 5657 5664 5674 5679 5683 5682 5681 5681 5679 5677 5674 5670 5665 5661 5657 5651 5645 5640 5634 5629 5624 5619 5614 5608 5603 5597 5590 5584 5577 5571 5564
5646 5636 5630 5633 5633 5636 5635 5635 5636 5632 5632 5621 5623 5647 5679 5679 5680 5678 5678 5678 5677 5674 5671 5667 5664 5661 5656 5651 5646 5640 5635 5629 5624 5618 5613 5608 5603 5597 5591 5584 5578 5571 5564 5557
5641 5634 5624 5631 5643 5647 5641 5638 5633 5621 5625 5630 5622 5640 5684 5683 5680 5678 5675 5674 5673 5671 5667 5662 5658 5654 5649 5644 5640 5635 5630 5624 5619 5613 5607 5602 5596 5590 5584 5577 5571 5564 5557 5550
5634 5625 5615 5616 5619 5628 5632 5637 5637 5633 5627 5622 5617 5637 5675 5674 5673 5672 5669 5667 5665 5664 5660 5655 5651 5646 5642 5637 5633 5628 5623 5618 5613 5607 5601 5594 5588 5582 5576 5570 5563 5556 5549 5541
5634 5624 5620 5618 5625 5629 5625 5631 5633 5627 5617 5620 5628 5641 5657 5660 5661 5664 5664 5663 5659 5656 5652 5648 5642 5638 5634 5631 5626 5621 5616 5611 5605 5599 5593 5587 5581 5574 5568 5562 5555 5548 5540 5532
5623 5617 5624 5630 5635 5635 5632 5630 5629 5626 5628 5623 5635 5640 5651 5655 5656 5658 5659 5657 5654 5650 5645 5641 5635 5630 5626 5623 5618 5613 5608 5603 5597 5591 5584 5578 5572 5565 5559 5552 5545 5538 5531 5524
5613 5611 5617 5618 5627 5627 5624 5629 5629 5628 5629 5629 5632 5639 5654 5656 5655 5654 5652 5650 5645 5642 5638 5634 5630 5623 5618 5614 5610 5605 5599 5594 5588 5581 5575 5569 5562 5556 5549 5542 5535 5528 5521 5513
5602 5603 5603 5603 5616 5614 5610 5627 5628 5629 5633 5630 5627 5640 5648 5645 5646 5646 5645 5642 5638 5635 5632 5627 5621 5615 5610 5606 5601 5595 5590 5584 5578 5571 5565 5559 5552 5546 5539 5532 5524 5517 5510 5503
5595 5594 5593 5594 5597 5583 5621 5645 5641 5635 5637 5637 5638 5642 5643 5642 5644 5643 5641 5636 5632 5629 5624 5619 5612 5607 5602 5597 5592 5586 5580 5573 5567 5560 5555 5549 5542 5535 5528 5521 5514 5507 5500 5493
5597 5590 5585 5581 5584 5598 5624 5636 5636 5629 5630 5641 5638 5640 5640 5639 5634 5632 5635 5632 5627 5622 5616 5610 5604 5598 5592 5587 5581 5575 5568 5562 5556 5550 5544 5538 5531 5524 5517 5510 5503 5496 5489 5482
5590 5590 5581 5578 5578 5585 5622 5637 5640 5629 5618 5640 5639 5636 5633 5626 5611 5618 5624 5622 5617 5611 5605 5599 5593 5588 5581 5576 5571 5564 5557 5551 5545 5539 5533 5527 5520 5513 5506 5499 5492 5485 5478 5471
5575 5577 5575 5575 5576 5596 5628 5630 5627 5605 5617 5638 5637 5633 5627 5617 5615 5617 5616 5611 5606 5600 5594 5589 5583 5576 5570 5565 5559 5552 5545 5539 5534 5528 5522 5515 5508 5501 5495 5488 5481 5474 5467 5459
5577 5573 5575 5575 5573 5590 5622 5618 5614 5620 5631 5632 5630 5627 5622 5617 5612 5608 5604 5599 5593 5587 5583 5577 5570 5564 5558 5553 5547 5540 5533 5529 5522 5516 5509 5502 5496 5490 5484 5476 5469 5461 5453 5446
5588 5592 5592 5594 5602 5621 5622 5621 5625 5627 5624 5623 5620 5620 5615 5609 5603 5599 5593 5587 5582 5577 5571 5565 5558 5552 5546 5541 5535 5528 5522 5516 5510 5503 5496 5489 5483 5477 5470 5463 5456 5448 5440 5432
5594 5601 5598 5599 5610 5617 5618 5621 5621 5620 5617 5617 5615 5612 5607 5601 5596 5590 5583 5577 5571 5565 5559 5553 5546 5539 5533 5528 5523 5516 5510 5504 5497 5490 5483 5477 5470 5464 5458 5451 5443 5435 5427 5418
5593 5592 5591 5596 5607 5610 5613 5614 5614 5613 5611 5609 5607 5604 5599 5593 5587 5581 5574 5567 5560 5554 5547 5540 5534 5527 5521 5515 5510 5504 5498 5491 5484 5477 5470 5464 5458 5451 5445 5439 5431 5423 5416 5406
5591 5589 5588 5595 5604 5601 5606 5610 5609 5605 5602 5600 5596 5592 5589 5584 5578 5571 5563 5557 5549 5542 5534 5527 5521 5515 5509 5503 5497 5491 5485 5478 5471 5464 5457 5450 5444 5438 5431 5425 5419 5413 5405 5398